CZ-4 DEB, 26137

Orbit data source: Space-Track

CZ-4 DEB, 26137 is space debris in SSO originally from a launch on Thu, 14 Oct 1999 UTC launched from the Taiyaun Space Center, China (TSC). Debris objects in space refer to the collection of defunct objects orbiting the Earth. Examples of debris include non-operational satellites, rocket bodies, and fragments generated from explosions, collisions, or faulty payload assembly.

Loading next visibility...
Identifier
26137, 1999-057Z
Orbit
SSO
Country
Flag of CNCN / PRC
Related business
Manufacturer
Unknown
Mission
Spacecraft
Bus & Motor
Unknown
Mass
Unknown
Launch date (UTC)
1999-10-14 (26 years ago)
Launch vehicle
Unknown
Launch site
Taiyaun Space Center, China (TSC)
Object type
Payload
Rocket body
Debris
Shape & HBR
Unknown shape, 0.1 m
Radar Cross Section
Medium (>0.1 m² and <1 m²)

Expand to show TLE details & history
Last TLE update: 12 hours ago

TLE from 12 hours ago
0 CZ-4 DEB
1 26137U 99057Z   25342.90806131  .00005603  00000-0  21303-2 0  9998
2 26137  98.9153 101.9117 0295538 229.7723 243.8038 14.10037362309568
Epoch: 2025-12-08T21:47Z
TLE epoch observation values (Epoch: 2025-12-08T21:47:36.497Z)
Latitude
67.72343°
Longitude
-100.49831°
Altitude
970.344 km
Speed
7.322 km/s
True Right ascension
20h 17m 12s
True Declination
67° 36' 22"
Sunlit
Object was in daylight at epoch
Visualization orbit readout
Latitude
Unknown
Longitude
Unknown
Altitude
Unknown
Speed
Unknown
Apparent Right ascension
Unknown
Apparent Declination
Unknown
Sunlit
N/A
Visualization observer readout
Local Sidereal Time
08:03:39
Azimuth
Unknown
Elevation
Unknown
Doppler factor
Unknown
Orbital elements
Apogee altitude
1,070.231 km
Perigee altitude
642.613 km
Semi-major axis
7,234.559 km
Eccentricity
0.02955
Inclination
98.9153°
RAAN
101.9117°
Arg. of periapsis
229.7723°
True anomaly
240.81518°
Mean anomaly
243.8038°
Eccentric anomaly
242.30449°
Mean motion
3.52716 °/min
Orbital period
102.07 mins
BSTAR
0.0021303
Loading maneuver chart data...
Computing Atmospheric mass density...
Loading historical data...
Loading historical data...
Loading historical data...
Loading historical data...
Loading historical data...
Loading historical data...
Loading historical data...

Documentation

Showing up to 5 results
|